User: anonymous   Login
Location: Unspecified
(0.0000°N, 0.0000°E)
Time: 06:23:13
(UTC+00:00)
Language:

COSMOS 2468 - Orbit

View from above orbital plane
View from above orbital plane
View from above satellite
View from above satellite

Ground track
Ground track

The orbit data is extracted from the following two-line orbital elements,

1 37154U 10043C   17080.92428670 +.00000028 +00000-0 +12970-3 0  9994
2 37154 082.4652 014.7033 0015583 104.4517 255.8295 12.43630653296502
Epoch (UTC): 21 March 2017 22:10:58
Eccentricity: 0.0015583
inclination: 82.4652°
perigee height: 1479 km
apogee height: 1503 km
right ascension of ascending node: 14.7033°
argument of perigee: 104.4517°
revolutions per day: 12.43630653
mean anomaly at epoch: 255.8295°
orbit number at epoch: 29650

The dashed part of the orbit path shows where the satellite is in the earth's shadow,  

DLR